DUZEAR1 KLVS-KSXU

Flight info

Callsign DUZEAR1
Flight time 0h 14m
Altitude 10000
Route KLVS/20 N0260F100 DCT ZODES DCT HONAS DCT KSXU/26
Aircraft PC12/L-SDE2FGIRWY/SB1

Departure

Time 2026-04-23 22:05
Airport Las Vegas Municipal Airport (KLVS)

Arrival

Time 2026-04-23 22:19
Airport Santa Rosa Route 66 Airport (KSXU)
Time Latitude Longitude Altitude Speed Heading
2026-04-23 21:53 35.65204 -105.14756 6871 ft 0 kts 360°
2026-04-23 22:01 35.65212 -105.14753 6871 ft 5 kts 45°
2026-04-23 22:01 35.65216 -105.14666 6872 ft 15 kts 108°
2026-04-23 22:01 35.65181 -105.14526 6874 ft 18 kts 51°
2026-04-23 22:02 35.65331 -105.14395 6874 ft 36 kts 34°
2026-04-23 22:02 35.65539 -105.14219 6868 ft 35 kts 35°
2026-04-23 22:02 35.65745 -105.14041 6870 ft 39 kts 34°
2026-04-23 22:02 35.65902 -105.13908 6877 ft 26 kts 34°
2026-04-23 22:03 35.65975 -105.13839 6878 ft 1 kts 88°
2026-04-23 22:03 35.65967 -105.13814 6878 ft 8 kts 120°
2026-04-23 22:03 35.65927 -105.13803 6877 ft 0 kts 213°
2026-04-23 22:04 35.65828 -105.13888 6873 ft 49 kts 215°
2026-04-23 22:04 35.65409 -105.14243 6943 ft 94 kts 215°
2026-04-23 22:04 35.64657 -105.14074 7187 ft 147 kts 157°
2026-04-23 22:05 35.63724 -105.13271 7494 ft 173 kts 156°
2026-04-23 22:05 35.62775 -105.12203 7951 ft 202 kts 129°
2026-04-23 22:05 35.62240 -105.10526 8501 ft 217 kts 109°
2026-04-23 22:05 35.61383 -105.08960 8909 ft 230 kts 146°
2026-04-23 22:06 35.60022 -105.08226 8979 ft 201 kts 184°
2026-04-23 22:06 35.58547 -105.08256 9013 ft 226 kts 187°
2026-04-23 22:06 35.56902 -105.08020 8999 ft 247 kts 175°
2026-04-23 22:06 35.55210 -105.07442 8972 ft 257 kts 168°
2026-04-23 22:07 35.53590 -105.06461 8984 ft 263 kts 157°
2026-04-23 22:07 35.52020 -105.05352 8968 ft 263 kts 157°
2026-04-23 22:07 35.50405 -105.04288 8963 ft 264 kts 159°
2026-04-23 22:07 35.48775 -105.03234 8918 ft 265 kts 158°
2026-04-23 22:08 35.47149 -105.02163 8920 ft 265 kts 159°
2026-04-23 22:08 35.45527 -105.01079 8883 ft 267 kts 156°
2026-04-23 22:08 35.44009 -104.99731 8931 ft 270 kts 147°
2026-04-23 22:08 35.42522 -104.98331 8961 ft 270 kts 149°
2026-04-23 22:09 35.41012 -104.96943 8937 ft 273 kts 148°
2026-04-23 22:09 35.39493 -104.95537 8917 ft 273 kts 148°
2026-04-23 22:09 35.37979 -104.94124 8926 ft 273 kts 149°
2026-04-23 22:09 35.36478 -104.92720 8976 ft 271 kts 149°
2026-04-23 22:10 35.34976 -104.91330 8953 ft 274 kts 150°
2026-04-23 22:10 35.33443 -104.89917 8944 ft 276 kts 149°
2026-04-23 22:10 35.31915 -104.88495 8948 ft 275 kts 148°
2026-04-23 22:10 35.30394 -104.87078 8952 ft 274 kts 149°
2026-04-23 22:11 35.28870 -104.85669 8980 ft 274 kts 149°
2026-04-23 22:11 35.27345 -104.84264 8994 ft 274 kts 148°
2026-04-23 22:11 35.25832 -104.82857 8992 ft 272 kts 148°
2026-04-23 22:11 35.24322 -104.81456 9012 ft 273 kts 149°
2026-04-23 22:12 35.22802 -104.80055 9023 ft 275 kts 148°
2026-04-23 22:12 35.21277 -104.78648 9033 ft 274 kts 148°
2026-04-23 22:12 35.19774 -104.77257 9041 ft 273 kts 148°
2026-04-23 22:12 35.18261 -104.75855 9057 ft 266 kts 148°
2026-04-23 22:13 35.16826 -104.74524 9069 ft 259 kts 149°
2026-04-23 22:13 35.15370 -104.73194 9056 ft 261 kts 148°
2026-04-23 22:13 35.13941 -104.71878 9019 ft 258 kts 148°
2026-04-23 22:13 35.12500 -104.70544 9035 ft 257 kts 149°
2026-04-23 22:14 35.11083 -104.69237 9050 ft 255 kts 149°
2026-04-23 22:14 35.09660 -104.67931 9052 ft 256 kts 149°
2026-04-23 22:14 35.08237 -104.66618 9025 ft 259 kts 149°
2026-04-23 22:14 35.06788 -104.65288 8787 ft 259 kts 149°
2026-04-23 22:15 35.05398 -104.64005 8410 ft 257 kts 149°
2026-04-23 22:15 35.03968 -104.62690 8048 ft 234 kts 149°
2026-04-23 22:15 35.02731 -104.61541 7750 ft 217 kts 150°
2026-04-23 22:15 35.01603 -104.60499 7492 ft 194 kts 152°
2026-04-23 22:16 35.00506 -104.59510 7255 ft 192 kts 152°
2026-04-23 22:16 34.99500 -104.58587 7106 ft 180 kts 150°
2026-04-23 22:16 34.98389 -104.57821 6886 ft 183 kts 173°
2026-04-23 22:16 34.97289 -104.57614 6651 ft 136 kts 194°
2026-04-23 22:17 34.96523 -104.57730 6487 ft 98 kts 211°
2026-04-23 22:17 34.95870 -104.58030 6382 ft 106 kts 219°
2026-04-23 22:17 34.95198 -104.58569 6154 ft 121 kts 230°
2026-04-23 22:17 34.94649 -104.59276 5919 ft 110 kts 242°
2026-04-23 22:18 34.94276 -104.60043 5718 ft 101 kts 249°
2026-04-23 22:18 34.94057 -104.60839 5492 ft 97 kts 257°
2026-04-23 22:18 34.93983 -104.61600 5302 ft 85 kts 266°
2026-04-23 22:18 34.93959 -104.62325 5141 ft 84 kts 268°
2026-04-23 22:19 34.93954 -104.63021 4993 ft 82 kts 268°
2026-04-23 22:19 34.93943 -104.63698 4839 ft 80 kts 269°
2026-04-23 22:19 34.93933 -104.64311 4795 ft 56 kts 269°
2026-04-23 22:19 34.93928 -104.64602 4795 ft 34 kts 268°
2026-04-23 22:20 34.93920 -104.64811 4801 ft 12 kts 294°
2026-04-23 22:20 34.93927 -104.64735 4799 ft 21 kts 89°
2026-04-23 22:20 34.93928 -104.64616 4796 ft 6 kts 90°
2026-04-23 22:20 34.93931 -104.64468 4795 ft 30 kts 88°
2026-04-23 22:21 34.93937 -104.64157 4791 ft 43 kts 88°
2026-04-23 22:21 34.93941 -104.63912 4795 ft 16 kts 89°
2026-04-23 22:21 34.93909 -104.63835 4796 ft 15 kts 163°
2026-04-23 22:21 34.93830 -104.63715 4798 ft 17 kts 111°
2026-04-23 22:22 34.93747 -104.63691 4799 ft 20 kts 202°
2026-04-23 22:22 34.93566 -104.63778 4798 ft 31 kts 201°
2026-04-23 22:22 34.93440 -104.63839 4798 ft 19 kts 201°
2026-04-23 22:22 34.93348 -104.63803 4798 ft 12 kts 127°
2026-04-23 22:23 34.93348 -104.63774 4799 ft 0 kts 20°